JI6FPP-13 Weather Reports


time (UTC)temp
C
wind
direction
speed
KPH
gust
KPH
rain 1hr
cm
rain 24hr
cm
rain mn
cm
humidity
%
barometer
mb
20260509090618 20 315 4.8 8.0 0.00 0.00 0.00 4 1013.0
20260509085619 20 315 9.7 14.5 0.00 0.00 0.00 4 1013.0
20260509084619 21 315 8.0 12.9 0.00 0.00 0.00 3 1013.0
20260509083618 21 312 8.0 9.7 0.00 0.00 0.00 3 1013.0
20260509082618 21 315 9.7 4.8 0.00 0.00 0.00 3 1013.0
20260509081620 21 324 9.7 8.0 0.00 0.00 0.00 3 1013.0
20260509080619 22 336 8.0 19.3 0.00 0.00 0.00 3 1013.0
20260509075619 22 323 4.8 8.0 0.00 0.00 0.00 3 1013.0
20260509074618 22 335 8.0 12.9 0.00 0.00 0.00 3 1012.0
20260509073620 22 317 8.0 8.0 0.00 0.00 0.00 2 1012.0
20260509072620 23 319 8.0 12.9 0.00 0.00 0.00 2 1012.0
20260509071618 23 315 4.8 8.0 0.00 0.00 0.00 2 1012.0
20260509070620 23 315 9.7 24.1 0.00 0.00 0.00 2 1012.0
20260509065619 23 301 4.8 9.7 0.00 0.00 0.00 2 1012.0
20260509064618 23 315 4.8 12.9 0.00 0.00 0.00 2 1012.0
20260509063619 24 304 11.3 11.3 0.00 0.00 0.00 2 1012.0
20260509062619 25 315 8.0 11.3 0.00 0.00 0.00 2 1012.0
20260509061619 25 315 4.8 11.3 0.00 0.00 0.00 2 1012.0
20260509060619 26 315 9.7 16.1 0.00 0.00 0.00 2 1013.0
20260509055620 27 315 9.7 9.7 0.00 0.00 0.00 2 1013.0
20260509054618 27 319 8.0 12.9 0.00 0.00 0.00 2 1013.0
20260509053618 27 315 4.8 11.3 0.00 0.00 0.00 2 1013.0
20260509052618 27 315 11.3 11.3 0.00 0.00 0.00 2 1013.0
20260509051618 27 315 11.3 11.3 0.00 0.00 0.00 2 1013.0
20260509050618 28 330 8.0 9.7 0.00 0.00 0.00 2 1012.0
20260509045618 28 315 3.2 9.7 0.00 0.00 0.00 2 1012.0
20260509044618 28 315 3.2 9.7 0.00 0.00 0.00 2 1013.0
20260509043619 28 315 3.2 8.0 0.00 0.00 0.00 2 1013.0
20260509042618 28 318 3.2 4.8 0.00 0.00 0.00 2 1013.0
20260509041620 29 315 8.0 12.9 0.00 0.00 0.00 2 1013.0
20260509040620 29 312 8.0 16.1 0.00 0.00 0.00 2 1013.0
20260509035620 30 315 11.3 9.7 0.00 0.00 0.00 2 1013.0
20260509034618 30 319 4.8 11.3 0.00 0.00 0.00 2 1013.0
20260509033618 30 315 1.6 4.8 0.00 0.00 0.00 2 1013.0
20260509032618 30 225 0.0 11.3 0.00 0.00 0.00 2 1013.0
20260509031618 31 316 1.6 9.7 0.00 0.00 0.00 2 1014.0
20260509030619 30 0 0.0 0.0 0.00 0.00 0.00 2 1014.0
20260509025619 30 271 3.2 8.0 0.00 0.00 0.00 2 1014.0
20260509024619 31 319 3.2 11.3 0.00 0.00 0.00 2 1014.0
20260509023619 31 315 0.0 4.8 0.00 0.00 0.00 2 1014.0
20260509022619 31 315 0.0 1.6 0.00 0.00 0.00 2 1014.0
20260509021619 30 315 0.0 1.6 0.00 0.00 0.00 2 1014.0
20260509020619 30 194 1.6 1.6 0.00 0.00 0.00 2 1014.0
20260509015619 30 342 1.6 3.2 0.00 0.00 0.00 2 1014.0
20260509014619 30 180 1.6 3.2 0.00 0.00 0.00 2 1014.0
20260509013619 29 355 1.6 4.8 0.00 0.00 0.00 2 1014.0
20260509012619 28 338 1.6 1.6 0.00 0.00 0.00 2 1014.0
20260509011618 28 0 0.0 1.6 0.00 0.00 0.00 2 1015.0
20260509010618 28 0 1.6 3.2 0.00 0.00 0.00 2 1014.0
20260509005618 27 0 0.0 3.2 0.00 0.00 0.00 2 1014.0
20260509004619 27 322 3.2 9.7 0.00 0.00 0.00 2 1014.0
20260509003619 27 315 1.6 3.2 0.00 0.00 0.00 2 1014.0
20260509002618 26 342 1.6 3.2 0.00 0.00 0.00 2 1014.0
20260509001619 25 33 0.0 1.6 0.00 0.00 0.00 2 1014.0
20260509000618 25 180 1.6 1.6 0.00 0.00 0.00 2 1014.0
20260508235618 24 315 1.6 1.6 0.00 0.00 0.00 16 1014.0
20260508234619 23 0 0.0 1.6 0.00 0.00 0.00 22 1014.0
20260508233619 22 315 0.0 4.8 0.00 0.00 0.00 27 1014.0
20260508232619 21 315 0.0 0.0 0.00 0.00 0.00 32 1014.0
20260508231618 20 315 0.0 4.8 0.00 0.00 0.00 34 1014.0
20260508230618 19 0 0.0 0.0 0.00 0.00 0.00 36 1014.0
20260508225620 18 0 0.0 0.0 0.00 0.00 0.00 42 1014.0
20260508224620 17 0 0.0 0.0 0.00 0.00 0.00 44 1014.0
20260508223620 15 0 0.0 0.0 0.00 0.00 0.00 47 1014.0
20260508222619 14 0 0.0 0.0 0.00 0.00 0.00 49 1014.0
20260508221619 13 0 0.0 0.0 0.00 0.00 0.00 50 1014.0
20260508220618 12 0 0.0 0.0 0.00 0.00 0.00 51 1013.0
20260508215619 12 0 0.0 0.0 0.00 0.00 0.00 51 1013.0
20260508214620 11 0 0.0 0.0 0.00 0.00 0.00 51 1013.0
20260508213620 11 0 0.0 0.0 0.00 0.00 0.00 51 1013.0
20260508212620 11 0 0.0 0.0 0.00 0.00 0.00 52 1013.0
20260508211620 10 0 0.0 0.0 0.00 0.00 0.00 52 1012.0
20260508210620 10 0 0.0 0.0 0.00 0.00 0.00 51 1012.0
20260508205620 11 0 0.0 0.0 0.00 0.00 0.00 51 1012.0
20260508204619 11 0 0.0 0.0 0.00 0.00 0.00 51 1013.0
20260508203619 10 90 0.0 0.0 0.00 0.00 0.00 52 1013.0
20260508202619 10 90 0.0 0.0 0.00 0.00 0.00 52 1013.0
20260508201619 10 90 0.0 0.0 0.00 0.00 0.00 52 1013.0
20260508200619 10 90 0.0 0.0 0.00 0.00 0.00 52 1013.0
20260508195619 10 90 0.0 0.0 0.00 0.00 0.00 52 1013.0
20260508194618 10 90 0.0 0.0 0.00 0.00 0.00 51 1013.0
20260508193618 10 90 0.0 0.0 0.00 0.00 0.00 51 1013.0
20260508192619 10 90 0.0 0.0 0.00 0.00 0.00 50 1013.0
20260508191620 10 90 0.0 0.0 0.00 0.00 0.00 50 1012.0
20260508190619 10 90 0.0 0.0 0.00 0.00 0.00 49 1012.0
20260508185619 10 90 0.0 0.0 0.00 0.00 0.00 49 1012.0
20260508184619 10 90 0.0 0.0 0.00 0.00 0.00 49 1012.0
20260508183619 10 90 0.0 0.0 0.00 0.00 0.00 48 1011.0
20260508182619 10 90 0.0 0.0 0.00 0.00 0.00 48 1011.0
20260508181620 10 90 0.0 0.0 0.00 0.00 0.00 48 1011.0
20260508180620 10 90 0.0 0.0 0.00 0.00 0.00 48 1011.0
20260508175618 10 90 0.0 0.0 0.00 0.00 0.00 48 1011.0
20260508174618 10 90 0.0 0.0 0.00 0.00 0.00 48 1011.0
20260508173618 10 90 0.0 0.0 0.00 0.00 0.00 47 1011.0
20260508172618 10 90 0.0 0.0 0.00 0.00 0.00 47 1011.0
20260508171619 10 0 0.0 0.0 0.00 0.00 0.00 46 1011.0
20260508170620 11 0 0.0 0.0 0.00 0.00 0.00 46 1011.0
20260508165620 11 180 0.0 0.0 0.00 0.00 0.00 46 1011.0
20260508164620 11 180 0.0 0.0 0.00 0.00 0.00 46 1011.0
20260508163618 11 187 0.0 0.0 0.00 0.00 0.00 46 1011.0
20260508162618 11 90 0.0 0.0 0.00 0.00 0.00 44 1011.0
20260508161619 11 90 0.0 0.0 0.00 0.00 0.00 42 1011.0
20260508160619 11 90 0.0 0.0 0.00 0.00 0.00 42 1011.0
20260508155619 11 90 0.0 0.0 0.00 0.00 0.00 41 1011.0
20260508154620 11 90 0.0 0.0 0.00 0.00 0.00 40 1011.0
20260508153620 11 90 0.0 0.0 0.00 0.00 0.00 40 1011.0
20260508152620 11 90 0.0 0.0 0.00 0.00 0.00 40 1011.0
20260508151619 12 90 0.0 0.0 0.00 0.00 0.00 39 1011.0
20260508150619 12 90 0.0 0.0 0.00 0.00 0.00 38 1011.0
20260508145620 12 90 0.0 0.0 0.00 0.00 0.00 37 1011.0
20260508144618 12 90 0.0 0.0 0.00 0.00 0.00 37 1011.0
20260508143620 12 90 0.0 0.0 0.00 0.00 0.00 37 1011.0
20260508142619 12 90 0.0 0.0 0.00 0.00 0.00 37 1011.0
20260508141619 12 90 0.0 0.0 0.00 0.00 0.00 37 1011.0
20260508140619 12 315 0.0 0.0 0.00 0.00 0.00 36 1010.0
20260508135619 12 315 0.0 0.0 0.00 0.00 0.00 36 1010.0
20260508134619 13 315 0.0 0.0 0.00 0.00 0.00 35 1010.0
20260508133619 13 315 0.0 0.0 0.00 0.00 0.00 35 1011.0
20260508132620 13 315 0.0 0.0 0.00 0.00 0.00 34 1011.0
20260508131620 13 315 0.0 0.0 0.00 0.00 0.00 32 1010.0
20260508130620 13 315 0.0 0.0 0.00 0.00 0.00 30 1010.0
20260508125620 13 315 0.0 0.0 0.00 0.00 0.00 29 1010.0
20260508124620 14 315 0.0 0.0 0.00 0.00 0.00 29 1011.0
20260508123620 14 315 0.0 0.0 0.00 0.00 0.00 27 1010.0
20260508122620 14 315 0.0 0.0 0.00 0.00 0.00 27 1010.0
20260508121618 15 315 0.0 0.0 0.00 0.00 0.00 26 1011.0
20260508120618 15 315 0.0 0.0 0.00 0.00 0.00 24 1011.0
20260508115619 15 315 0.0 0.0 0.00 0.00 0.00 24 1011.0
20260508114619 15 315 0.0 0.0 0.00 0.00 0.00 18 1011.0
20260508113619 15 315 0.0 0.0 0.00 0.00 0.00 10 1010.0
20260508112619 16 315 0.0 0.0 0.00 0.00 0.00 6 1010.0
20260508111619 16 315 0.0 0.0 0.00 0.00 0.00 5 1010.0
20260508110619 16 315 0.0 0.0 0.00 0.00 0.00 5 1010.0
20260508105619 16 315 0.0 0.0 0.00 0.00 0.00 5 1010.0
20260508104620 16 315 0.0 0.0 0.00 0.00 0.00 5 1010.0
20260508103620 17 315 0.0 0.0 0.00 0.00 0.00 5 1010.0
20260508102620 17 315 0.0 0.0 0.00 0.00 0.00 5 1010.0
20260508101619 17 315 0.0 0.0 0.00 0.00 0.00 4 1010.0
20260508100619 18 315 0.0 0.0 0.00 0.00 0.00 4 1009.0
20260508095619 18 315 0.0 1.6 0.00 0.00 0.00 4 1009.0
20260508094620 18 315 0.0 0.0 0.00 0.00 0.00 4 1009.0
20260508093620 19 315 0.0 1.6 0.00 0.00 0.00 4 1009.0
20260508092620 19 264 1.6 3.2 0.00 0.00 0.00 4 1009.0
20260508091619 20 300 0.0 4.8 0.00 0.00 0.00 4 1009.0